Wind_Speed
25 25 25 24 24 25 26 27 29 27 28 30 34 35 35 36 37 38 40 41 42 42 43 44 45 47 48 50 51 53 55 57 59 62 65 67 69 72 74 76 78 79 80 80
26 26 26 26 25 26 27 28 30 31 31 32 34 36 37 38 39 40 41 42 43 43 45 46 47 49 50 52 54 56 58 60 63 65 67 70 72 74 76 77 79 79 79 78
27 27 29 27 25 28 29 31 32 33 33 34 35 36 38 39 40 41 42 43 43 45 46 48 49 50 52 54 56 58 61 63 65 68 70 72 74 76 77 78 78 77 76 75
28 29 30 28 27 29 31 32 33 34 35 36 37 38 39 40 41 42 43 43 45 46 47 49 50 52 54 56 58 61 63 65 68 70 72 74 76 77 78 78 77 75 73 71
30 31 31 29 29 30 32 32 33 35 36 37 38 39 40 41 42 43 43 45 46 47 49 50 52 54 56 58 60 62 65 67 70 72 74 76 77 77 77 76 74 72 70 68
31 33 33 31 31 32 34 34 33 35 37 38 39 40 41 42 43 44 44 45 47 48 50 52 54 56 58 60 62 65 67 70 72 74 76 76 77 77 76 74 72 69 66 64
32 34 35 34 34 35 36 36 36 37 38 39 40 41 42 43 44 44 45 46 48 50 52 54 56 58 60 62 64 67 69 71 74 75 76 76 76 75 74 71 69 66 64 61
34 36 36 36 37 37 38 38 39 40 40 41 41 42 42 43 44 45 46 48 50 51 53 56 58 60 62 64 67 69 71 73 74 75 75 75 74 73 71 68 65 63 60 57
36 37 37 38 39 40 40 41 41 42 42 43 43 43 43 44 45 47 48 50 51 53 55 57 59 62 64 66 69 71 72 73 74 74 74 73 72 70 67 65 63 60 58 55
37 38 39 40 41 42 42 43 44 44 44 44 44 44 45 46 47 49 50 52 53 55 57 59 61 64 67 69 71 72 73 73 74 73 72 71 70 67 65 63 61 58 56 53
39 40 42 42 42 43 44 45 45 45 44 44 45 45 46 47 49 50 52 54 55 57 59 61 64 66 69 71 72 73 73 73 73 72 71 69 66 64 62 60 59 57 54 51
40 40 42 42 43 44 45 45 45 45 45 45 46 47 47 49 50 52 54 56 58 59 62 64 66 68 70 72 73 73 73 73 72 71 69 67 64 60 58 58 56 54 51 49
40 41 42 42 43 44 45 45 45 45 45 46 47 48 49 50 52 54 56 58 60 62 64 66 68 70 71 73 73 73 73 72 71 69 67 64 61 58 56 54 52 51 49 46
40 41 42 43 44 44 44 44 45 45 46 47 48 49 51 52 54 56 58 60 62 64 66 68 70 71 72 73 73 73 72 70 69 66 64 61 59 57 55 52 49 47 46 44
40 42 42 43 44 44 44 44 45 46 47 48 50 51 53 54 55 57 60 62 64 66 68 70 71 72 73 73 73 72 70 68 66 63 60 58 56 54 53 51 48 45 43 41
41 42 42 43 44 43 43 44 45 46 48 50 51 53 54 55 57 59 61 64 66 67 69 71 73 73 73 73 72 70 67 65 63 60 58 56 54 53 51 48 46 44 42 39
41 41 42 42 43 43 44 45 46 48 49 51 52 53 55 57 59 61 63 66 68 70 72 73 74 73 73 72 70 67 65 62 60 58 56 54 53 51 49 47 44 43 40 38
40 41 42 42 43 44 45 46 47 49 50 52 53 55 57 60 62 64 66 68 70 71 72 74 74 73 71 69 67 65 62 59 57 55 53 52 50 49 47 45 43 41 38 36
40 40 41 42 43 44 46 47 48 50 52 54 56 57 60 62 64 66 68 70 72 73 73 73 72 70 69 67 65 62 59 57 55 53 51 50 48 46 44 43 41 40 37 36
40 40 41 42 44 45 46 48 50 52 54 56 58 60 62 64 67 69 70 71 72 74 73 71 70 68 66 64 61 59 57 54 52 51 49 47 45 43 42 41 40 39 37 35
39 40 41 43 45 46 48 50 52 54 56 58 60 62 64 66 68 70 71 72 72 72 71 69 68 65 63 61 58 56 54 52 50 48 46 44 43 41 41 40 38 37 36 35
39 41 43 45 46 48 50 52 54 56 58 60 63 65 67 69 70 71 71 72 71 70 69 67 64 62 60 57 55 52 51 49 47 45 43 42 41 40 39 38 37 36 35 34
41 43 45 46 48 49 51 53 56 58 60 63 65 68 70 71 71 71 71 70 70 68 66 63 61 59 56 54 52 50 48 46 44 43 41 40 40 39 38 37 35 34 33 32
42 44 45 47 49 51 53 56 58 61 64 66 68 70 71 71 70 71 71 69 67 65 62 60 58 56 54 52 50 48 46 44 43 41 40 39 38 37 37 35 34 33 32 31
44 46 48 50 52 54 57 59 62 64 66 67 68 69 70 70 70 69 68 66 64 62 60 57 55 53 51 50 48 45 44 42 41 39 38 37 36 35 34 33 32 31 30 30
47 49 51 54 56 58 60 63 64 66 68 68 68 68 68 68 68 67 65 63 61 59 57 55 53 51 49 47 45 42 41 39 38 37 35 35 34 33 32 31 30 29 29 29
50 53 55 57 59 61 63 65 66 67 68 68 67 67 66 66 65 64 63 61 59 57 54 52 49 47 45 42 40 39 37 37 35 34 33 32 31 31 30 29 28 28 28 29
Wind_Direction
253 257 260 262 266 270 274 277 280 282 282 284 285 288 290 292 293 293 295 296 297 297 297 297 298 299 300 300 301 302 303 303 304 305 305 306 306 307 307 308 308 307 307 307
254 259 262 264 268 272 275 279 281 283 285 284 286 288 290 292 293 294 295 296 297 297 297 298 299 300 301 301 302 303 303 304 305 306 307 307 308 309 309 309 309 309 308 308
256 259 263 266 269 273 277 279 281 284 286 287 288 289 290 291 293 294 294 295 296 297 298 298 299 300 301 302 303 303 305 305 306 307 308 309 310 310 310 310 310 310 309 308
259 260 264 270 272 275 278 280 282 284 286 288 289 290 291 292 293 293 295 296 297 297 298 299 300 301 302 303 304 305 306 307 308 309 310 311 311 311 311 311 311 311 310 309
261 264 268 272 276 278 279 280 283 285 287 288 290 291 292 292 293 294 295 296 297 298 299 300 301 302 303 304 305 306 308 309 310 310 311 312 312 312 313 312 312 311 311 310
264 269 273 275 277 279 281 283 284 286 288 290 291 292 292 293 294 295 295 296 297 298 300 301 302 303 304 306 307 308 309 310 311 312 313 313 313 314 313 313 312 312 311 310
267 271 275 279 281 282 283 286 287 288 290 291 292 293 293 293 294 295 296 297 298 300 301 302 303 304 306 307 308 309 310 311 312 313 313 314 314 314 314 313 312 312 311 310
268 272 277 281 283 284 286 287 289 291 292 293 293 294 294 294 295 296 297 298 299 301 302 303 304 306 307 308 309 310 312 313 313 314 314 315 315 315 314 313 312 312 311 310
269 273 277 280 283 285 287 288 290 292 293 294 294 294 294 295 296 297 298 299 300 302 303 305 306 307 308 309 310 312 313 313 314 315 315 315 315 314 314 313 312 311 311 310
270 274 277 280 283 285 288 289 291 292 293 293 294 294 295 296 297 298 299 300 301 303 304 306 307 308 309 310 311 312 313 314 314 315 315 315 315 314 313 313 312 312 311 310
272 275 278 280 283 285 287 289 291 291 292 292 293 294 295 296 298 299 300 301 303 304 305 307 308 309 310 311 312 313 314 314 315 315 315 315 315 314 314 314 313 313 312 310
273 275 277 280 282 285 287 288 289 290 290 291 293 294 296 297 298 300 301 302 304 305 306 308 309 310 311 312 313 314 314 315 315 315 315 315 314 314 314 314 314 313 312 311
275 276 278 281 283 285 287 287 288 288 290 291 293 294 296 297 299 300 302 303 304 306 307 308 309 310 311 312 313 314 315 315 315 315 315 314 314 313 313 314 313 312 311 310
275 277 280 282 284 285 286 286 287 288 290 291 293 295 296 298 300 301 302 304 305 307 308 309 310 311 312 313 314 314 314 314 314 314 314 313 313 313 314 314 313 311 311 309
277 279 280 281 282 284 285 285 287 288 290 292 294 296 297 298 300 301 303 304 306 307 308 309 311 312 312 313 313 314 314 314 313 313 313 313 313 313 313 313 313 312 311 309
277 278 280 281 282 283 284 286 287 289 291 293 294 296 297 299 301 302 304 305 307 308 309 310 311 312 312 312 313 313 313 313 312 312 312 312 313 313 313 312 312 312 311 309
276 278 279 280 281 283 284 286 288 290 292 294 295 297 298 300 301 303 305 306 307 309 310 310 311 312 312 312 312 312 312 312 311 311 311 312 312 312 312 311 311 311 310 309
276 277 278 280 281 283 285 287 289 291 293 295 296 298 299 301 302 304 305 307 308 309 310 310 311 311 311 311 311 311 311 311 310 310 310 311 311 311 311 310 310 310 310 308
277 278 280 281 282 284 286 288 290 292 294 295 297 299 301 302 304 305 306 307 308 309 310 310 310 310 310 310 310 310 310 309 309 309 309 310 310 310 309 309 309 309 308 308
278 279 280 282 283 286 288 290 292 293 295 297 299 300 302 303 305 306 307 308 309 309 310 310 310 310 310 309 309 309 308 308 308 308 309 309 309 309 309 308 308 308 308 307
278 280 282 283 286 288 289 291 293 295 297 299 300 301 303 304 305 306 307 308 309 310 310 310 310 309 309 309 308 308 307 307 308 308 308 308 308 308 308 308 307 308 308 307
280 282 284 286 288 290 292 294 295 297 299 300 301 303 304 305 306 307 308 309 309 310 310 310 309 309 308 308 308 307 307 306 307 307 307 307 307 307 307 307 307 307 307 307
282 284 287 288 290 292 294 296 297 299 300 302 303 304 305 306 306 307 308 309 309 309 309 309 308 308 308 307 307 307 306 306 306 306 306 307 306 306 307 307 306 306 307 307
285 287 289 291 292 294 296 297 299 300 302 303 304 304 305 306 306 307 308 309 309 308 308 308 307 307 307 307 306 306 305 304 304 304 305 306 306 305 306 306 306 306 307 307
288 289 291 293 295 296 297 299 300 301 302 303 304 304 305 306 307 307 308 308 308 307 307 307 306 306 306 306 305 305 304 304 303 303 304 305 305 305 305 305 305 306 306 307
290 292 293 295 296 298 299 300 301 302 302 303 303 304 305 306 306 307 308 308 307 307 306 306 305 305 304 304 305 304 304 303 303 303 303 304 305 305 305 304 304 306 307 308
292 293 295 297 298 299 300 301 301 302 302 303 303 304 305 305 306 306 307 307 307 307 306 305 304 304 304 304 304 304 303 303 303 303 303 304 305 305 306 305 304 306 308 309
Height
5759 5760 5761 5762 5762 5762 5761 5761 5760 5761 5759 5757 5753 5751 5748 5746 5743 5739 5736 5732 5728 5724 5719 5715 5710 5705 5700 5695 5689 5683 5677 5670 5663 5656 5648 5639 5631 5621 5611 5601 5591 5580 5569 5558
5752 5752 5753 5754 5755 5754 5754 5753 5752 5751 5750 5748 5745 5742 5739 5736 5733 5729 5725 5721 5717 5713 5708 5703 5699 5694 5688 5682 5676 5670 5663 5656 5648 5640 5632 5623 5613 5603 5593 5582 5571 5559 5548 5536
5745 5745 5745 5747 5749 5747 5746 5745 5744 5742 5741 5738 5736 5733 5730 5727 5723 5719 5715 5711 5706 5702 5697 5692 5687 5682 5676 5669 5663 5656 5649 5641 5632 5624 5615 5605 5595 5584 5573 5562 5551 5539 5528 5516
5736 5738 5738 5742 5740 5739 5738 5737 5735 5733 5731 5728 5726 5723 5720 5716 5712 5708 5704 5700 5695 5690 5685 5680 5675 5669 5663 5656 5649 5642 5634 5625 5616 5607 5598 5587 5577 5565 5554 5543 5531 5520 5509 5498
5729 5728 5730 5733 5732 5730 5728 5728 5726 5724 5721 5718 5715 5712 5709 5705 5701 5697 5693 5688 5684 5678 5673 5668 5662 5656 5649 5642 5635 5627 5618 5609 5600 5590 5580 5569 5558 5547 5535 5524 5513 5501 5491 5480
5720 5720 5721 5724 5723 5720 5719 5718 5717 5714 5711 5708 5705 5702 5699 5694 5690 5686 5681 5677 5672 5666 5661 5655 5649 5643 5635 5628 5620 5612 5603 5593 5583 5572 5562 5551 5540 5528 5516 5505 5494 5484 5474 5463
5711 5710 5711 5713 5712 5710 5710 5709 5706 5704 5701 5698 5695 5691 5687 5683 5678 5674 5669 5665 5659 5654 5648 5642 5635 5629 5621 5613 5605 5596 5586 5576 5566 5555 5544 5533 5521 5510 5498 5488 5478 5468 5458 5449
5703 5702 5704 5702 5701 5700 5699 5697 5694 5692 5689 5686 5683 5679 5675 5671 5666 5662 5657 5652 5647 5641 5635 5628 5621 5614 5607 5598 5590 5580 5571 5560 5549 5538 5526 5514 5503 5492 5481 5470 5461 5452 5443 5434
5695 5696 5694 5692 5690 5689 5687 5685 5683 5680 5677 5674 5671 5667 5663 5659 5654 5650 5645 5640 5634 5628 5621 5614 5607 5599 5591 5583 5573 5564 5554 5543 5532 5521 5509 5497 5486 5476 5465 5454 5445 5436 5428 5420
5684 5684 5683 5681 5679 5677 5676 5673 5671 5668 5665 5662 5658 5655 5651 5647 5642 5637 5632 5626 5620 5614 5608 5600 5592 5584 5575 5566 5557 5547 5537 5526 5515 5504 5493 5482 5470 5459 5449 5439 5430 5421 5413 5406
5673 5673 5671 5670 5668 5666 5664 5662 5659 5656 5653 5650 5646 5643 5638 5634 5629 5624 5619 5613 5607 5600 5593 5586 5577 5569 5559 5550 5540 5530 5520 5509 5498 5487 5476 5466 5456 5445 5434 5425 5414 5406 5399 5391
5663 5662 5661 5659 5657 5655 5653 5650 5647 5644 5641 5638 5634 5630 5626 5621 5616 5611 5605 5599 5593 5586 5578 5570 5562 5552 5543 5533 5523 5513 5503 5492 5481 5471 5460 5450 5441 5433 5422 5412 5403 5393 5385 5377
5651 5650 5649 5647 5645 5643 5641 5638 5635 5632 5629 5625 5622 5618 5613 5608 5603 5597 5591 5585 5578 5571 5563 5554 5545 5536 5526 5516 5506 5495 5485 5475 5465 5454 5444 5435 5426 5417 5410 5402 5392 5382 5374 5366
5639 5638 5637 5635 5633 5631 5628 5626 5623 5620 5616 5613 5609 5605 5600 5595 5590 5584 5577 5570 5563 5555 5547 5538 5529 5519 5509 5499 5489 5479 5468 5458 5448 5439 5429 5420 5411 5403 5395 5388 5381 5373 5364 5356
5628 5627 5625 5623 5621 5619 5616 5613 5611 5608 5604 5600 5596 5592 5587 5581 5576 5569 5562 5555 5547 5539 5531 5521 5512 5503 5492 5482 5472 5462 5452 5442 5433 5424 5415 5406 5398 5390 5382 5374 5367 5360 5354 5347
5616 5614 5612 5611 5609 5607 5604 5601 5599 5595 5592 5587 5583 5578 5573 5567 5561 5555 5547 5539 5532 5523 5514 5504 5495 5486 5475 5465 5456 5446 5437 5427 5417 5409 5401 5393 5385 5377 5369 5362 5355 5348 5342 5336
5604 5602 5601 5599 5597 5595 5592 5589 5586 5583 5579 5574 5569 5564 5559 5553 5547 5540 5532 5524 5515 5506 5497 5487 5478 5468 5458 5448 5438 5430 5421 5413 5404 5395 5387 5379 5372 5364 5357 5350 5344 5337 5331 5325
5592 5591 5589 5587 5585 5583 5580 5577 5573 5569 5565 5560 5556 5550 5544 5538 5531 5524 5516 5508 5499 5490 5480 5469 5460 5451 5441 5431 5422 5414 5406 5398 5390 5382 5374 5367 5359 5352 5346 5339 5333 5327 5321 5316
5580 5579 5577 5575 5573 5570 5567 5564 5560 5556 5551 5546 5541 5536 5529 5522 5515 5507 5500 5491 5481 5473 5464 5453 5443 5433 5424 5415 5406 5398 5390 5383 5376 5368 5361 5354 5347 5341 5334 5328 5322 5316 5311 5306
5568 5567 5565 5563 5560 5558 5554 5551 5547 5542 5537 5532 5526 5520 5513 5506 5498 5490 5482 5474 5463 5453 5445 5436 5426 5417 5408 5399 5390 5383 5376 5369 5362 5355 5349 5342 5336 5330 5323 5317 5312 5306 5301 5296
5557 5555 5553 5551 5548 5545 5541 5537 5533 5528 5523 5516 5510 5504 5497 5490 5481 5473 5464 5457 5448 5436 5427 5418 5409 5400 5392 5384 5376 5369 5362 5355 5349 5343 5336 5330 5325 5319 5313 5307 5302 5296 5291 5286
5545 5543 5541 5538 5535 5532 5527 5523 5518 5513 5507 5501 5494 5487 5480 5472 5464 5456 5447 5437 5429 5419 5410 5402 5393 5384 5376 5369 5362 5355 5348 5342 5336 5330 5325 5319 5313 5308 5303 5297 5292 5287 5282 5277
5533 5531 5528 5525 5522 5518 5513 5508 5503 5497 5491 5484 5477 5469 5461 5454 5445 5437 5430 5421 5411 5402 5393 5385 5377 5369 5361 5354 5348 5341 5335 5329 5324 5318 5313 5308 5302 5297 5292 5287 5282 5277 5273 5268
5520 5518 5515 5511 5508 5504 5499 5494 5488 5481 5474 5467 5459 5450 5442 5435 5428 5418 5410 5403 5394 5385 5377 5369 5361 5354 5347 5340 5334 5328 5322 5317 5312 5307 5302 5297 5292 5287 5282 5277 5273 5268 5264 5259
5507 5504 5501 5497 5493 5488 5483 5478 5472 5465 5458 5450 5442 5433 5424 5415 5408 5401 5393 5385 5377 5368 5361 5354 5346 5339 5332 5326 5321 5315 5310 5304 5299 5295 5290 5286 5281 5276 5272 5267 5263 5259 5255 5251
5494 5490 5486 5482 5477 5472 5466 5461 5454 5447 5440 5433 5426 5416 5407 5399 5390 5383 5375 5368 5360 5352 5345 5338 5331 5325 5319 5313 5307 5302 5297 5293 5288 5284 5279 5275 5271 5267 5263 5258 5255 5251 5247 5243
5479 5475 5471 5466 5460 5454 5448 5442 5435 5429 5421 5413 5407 5399 5390 5382 5374 5366 5358 5351 5344 5336 5329 5323 5317 5311 5305 5300 5295 5290 5286 5282 5278 5273 5269 5266 5262 5258 5254 5250 5247 5243 5239 5235